QPF
0.00 0.00 0.00 0.00 0.00 0.00 0.00 0.00 0.00 0.00 0.00 0.00 0.00 0.00 0.00 0.00 0.00 0.00 0.00 0.00 0.00 0.03 0.07 0.03 0.00 0.00 0.00 0.00 0.00 0.00 0.00 0.00 0.00 0.00 0.00 0.00 0.00 0.00 0.00 0.00 0.00 0.00 0.00
0.02 0.07 0.03 0.01 0.01 0.00 0.00 0.02 0.02 0.03 0.01 0.01 0.01 0.01 0.00 0.00 0.01 0.04 0.00 0.00 0.00 0.01 0.07 0.12 0.11 0.12 0.02 0.00 0.00 0.00 0.00 0.00 0.00 0.00 0.00 0.00 0.00 0.01 0.01 0.00 0.01 0.02 0.05
0.01 0.01 0.03 0.02 0.00 0.02 0.00 0.01 0.02 0.04 0.01 0.03 0.02 0.01 0.03 0.05 0.06 0.07 0.05 0.01 0.01 0.03 0.04 0.09 0.13 0.17 0.16 0.08 0.01 0.00 0.01 0.03 0.01 0.00 0.00 0.00 0.00 0.00 0.02 0.04 0.03 0.01 0.03
0.02 0.02 0.02 0.00 0.00 0.06 0.04 0.03 0.00 0.00 0.02 0.03 0.01 0.00 0.00 0.02 0.11 0.09 0.04 0.03 0.02 0.00 0.04 0.06 0.09 0.10 0.16 0.20 0.15 0.07 0.07 0.13 0.11 0.01 0.00 0.00 0.00 0.00 0.00 0.01 0.03 0.04 0.04
0.04 0.01 0.03 0.02 0.04 0.02 0.06 0.05 0.04 0.08 0.03 0.03 0.01 0.01 0.02 0.04 0.07 0.03 0.00 0.05 0.09 0.01 0.00 0.00 0.01 0.17 0.09 0.08 0.21 0.21 0.14 0.13 0.18 0.11 0.01 0.00 0.00 0.00 0.00 0.01 0.01 0.03 0.04
0.05 0.01 0.03 0.06 0.11 0.07 0.13 0.25 0.16 0.27 0.06 0.03 0.00 0.01 0.07 0.06 0.04 0.08 0.02 0.02 0.05 0.04 0.03 0.02 0.04 0.12 0.06 0.10 0.18 0.27 0.21 0.13 0.27 0.19 0.09 0.00 0.00 0.00 0.00 0.00 0.01 0.01 0.02
0.06 0.05 0.04 0.05 0.02 0.06 0.03 0.04 0.06 0.03 0.00 0.00 0.01 0.00 0.04 0.10 0.11 0.11 0.03 0.01 0.01 0.07 0.04 0.04 0.02 0.04 0.03 0.03 0.34 0.51 0.06 0.07 0.13 0.15 0.10 0.07 0.00 0.00 0.01 0.00 0.00 0.02 0.01
0.03 0.14 0.11 0.08 0.02 0.00 0.05 0.00 0.00 0.00 0.00 0.00 0.01 0.02 0.03 0.08 0.09 0.01 0.00 0.00 0.00 0.00 0.01 0.00 0.00 0.00 0.00 0.00 0.10 0.13 0.01 0.03 0.06 0.11 0.07 0.06 0.11 0.02 0.00 0.01 0.04 0.02 0.01
0.00 0.00 0.03 0.00 0.01 0.00 0.04 0.01 0.00 0.00 0.00 0.00 0.00 0.06 0.01 0.01 0.00 0.01 0.00 0.00 0.00 0.00 0.00 0.01 0.00 0.00 0.00 0.00 0.01 0.02 0.02 0.02 0.03 0.05 0.02 0.02 0.06 0.06 0.04 0.05 0.04 0.02 0.02
0.06 0.03 0.06 0.01 0.01 0.00 0.03 0.00 0.05 0.11 0.09 0.00 0.00 0.01 0.01 0.04 0.05 0.00 0.00 0.00 0.00 0.00 0.00 0.00 0.00 0.00 0.00 0.00 0.00 0.01 0.01 0.00 0.00 0.01 0.04 0.05 0.05 0.02 0.01 0.09 0.12 0.13 0.19
0.11 0.07 0.03 0.00 0.00 0.00 0.00 0.00 0.00 0.01 0.00 0.00 0.00 0.00 0.00 0.00 0.01 0.00 0.04 0.00 0.00 0.00 0.00 0.00 0.00 0.00 0.00 0.00 0.00 0.00 0.00 0.00 0.00 0.01 0.01 0.03 0.05 0.03 0.02 0.13 0.16 0.20 0.37
0.02 0.00 0.00 0.00 0.00 0.00 0.00 0.00 0.00 0.01 0.01 0.01 0.00 0.00 0.00 0.00 0.00 0.00 0.03 0.01 0.00 0.00 0.00 0.00 0.00 0.00 0.00 0.00 0.00 0.00 0.00 0.00 0.01 0.02 0.04 0.03 0.11 0.10 0.04 0.12 0.22 0.17 0.18
0.00 0.00 0.00 0.00 0.00 0.00 0.00 0.00 0.00 0.00 0.00 0.00 0.00 0.00 0.00 0.00 0.00 0.00 0.00 0.00 0.00 0.00 0.00 0.00 0.00 0.00 0.00 0.00 0.00 0.00 0.00 0.00 0.02 0.04 0.07 0.04 0.00 0.04 0.16 0.16 0.19 0.18 0.18
0.00 0.00 0.00 0.00 0.00 0.00 0.00 0.00 0.00 0.00 0.00 0.00 0.00 0.00 0.00 0.00 0.00 0.00 0.00 0.00 0.00 0.00 0.00 0.00 0.00 0.00 0.00 0.00 0.00 0.00 0.00 0.00 0.00 0.01 0.03 0.05 0.06 0.05 0.07 0.13 0.13 0.11 0.10
0.00 0.00 0.00 0.00 0.00 0.00 0.00 0.00 0.00 0.00 0.00 0.00 0.00 0.00 0.00 0.00 0.00 0.00 0.00 0.00 0.00 0.00 0.00 0.00 0.00 0.00 0.00 0.00 0.00 0.00 0.00 0.00 0.00 0.01 0.01 0.01 0.02 0.04 0.06 0.16 0.11 0.08 0.08
0.00 0.00 0.00 0.00 0.00 0.00 0.00 0.00 0.00 0.00 0.00 0.00 0.00 0.00 0.00 0.00 0.00 0.00 0.00 0.00 0.00 0.00 0.00 0.00 0.00 0.00 0.00 0.00 0.00 0.00 0.00 0.00 0.00 0.00 0.00 0.00 0.02 0.03 0.03 0.07 0.06 0.02 0.04
0.00 0.00 0.00 0.00 0.00 0.00 0.00 0.00 0.00 0.00 0.00 0.00 0.00 0.00 0.00 0.00 0.00 0.00 0.00 0.00 0.00 0.00 0.00 0.00 0.00 0.00 0.00 0.00 0.00 0.00 0.00 0.00 0.00 0.00 0.00 0.00 0.00 0.00 0.01 0.01 0.00 0.00 0.01
0.00 0.00 0.00 0.00 0.00 0.00 0.00 0.00 0.00 0.00 0.00 0.00 0.00 0.00 0.00 0.00 0.00 0.00 0.00 0.00 0.00 0.00 0.00 0.00 0.00 0.00 0.00 0.00 0.00 0.00 0.00 0.00 0.00 0.00 0.00 0.00 0.00 0.00 0.00 0.00 0.00 0.00 0.00
0.00 0.00 0.00 0.00 0.00 0.00 0.00 0.00 0.00 0.00 0.00 0.00 0.00 0.00 0.00 0.00 0.00 0.00 0.00 0.00 0.00 0.00 0.00 0.00 0.00 0.00 0.00 0.00 0.00 0.00 0.00 0.00 0.00 0.00 0.00 0.00 0.00 0.00 0.01 0.00 0.00 0.00 0.00
0.00 0.00 0.00 0.00 0.00 0.00 0.00 0.00 0.00 0.00 0.00 0.00 0.00 0.00 0.00 0.00 0.00 0.00 0.00 0.00 0.00 0.00 0.00 0.00 0.00 0.00 0.00 0.00 0.00 0.00 0.00 0.00 0.00 0.00 0.00 0.00 0.01 0.05 0.07 0.02 0.00 0.00 0.00
0.00 0.00 0.00 0.00 0.00 0.00 0.00 0.00 0.00 0.00 0.00 0.00 0.00 0.00 0.00 0.00 0.00 0.00 0.00 0.00 0.00 0.00 0.00 0.00 0.00 0.00 0.00 0.00 0.00 0.00 0.00 0.00 0.00 0.00 0.00 0.00 0.01 0.03 0.05 0.06 0.07 0.08 0.06
0.00 0.00 0.00 0.00 0.00 0.00 0.00 0.00 0.00 0.00 0.00 0.00 0.00 0.00 0.00 0.00 0.00 0.00 0.00 0.00 0.00 0.00 0.00 0.00 0.00 0.00 0.00 0.00 0.00 0.00 0.00 0.00 0.00 0.00 0.00 0.00 0.00 0.00 0.00 0.01 0.01 0.01 0.01
0.00 0.00 0.00 0.00 0.00 0.00 0.00 0.00 0.00 0.00 0.00 0.00 0.00 0.00 0.00 0.00 0.00 0.00 0.00 0.00 0.00 0.00 0.00 0.00 0.00 0.00 0.00 0.00 0.00 0.00 0.00 0.00 0.00 0.00 0.00 0.00 0.00 0.00 0.01 0.00 0.00 0.00 0.00
0.00 0.00 0.00 0.00 0.00 0.00 0.00 0.00 0.00 0.00 0.00 0.00 0.00 0.00 0.00 0.00 0.00 0.00 0.00 0.00 0.00 0.00 0.00 0.00 0.00 0.00 0.00 0.00 0.00 0.00 0.00 0.00 0.00 0.00 0.00 0.00 0.00 0.01 0.01 0.00 0.00 0.00 0.00
0.00 0.00 0.00 0.00 0.00 0.00 0.00 0.00 0.00 0.00 0.00 0.00 0.00 0.00 0.00 0.00 0.00 0.00 0.00 0.00 0.00 0.00 0.00 0.00 0.00 0.00 0.00 0.00 0.00 0.00 0.00 0.00 0.00 0.00 0.00 0.00 0.00 0.00 0.00 0.00 0.00 0.00 0.00
0.00 0.00 0.00 0.00 0.00 0.00 0.00 0.00 0.00 0.00 0.00 0.00 0.00 0.00 0.00 0.00 0.00 0.00 0.00 0.00 0.00 0.00 0.00 0.00 0.00 0.00 0.00 0.00 0.00 0.00 0.00 0.00 0.00 0.00 0.00 0.00 0.00 0.00 0.00 0.00 0.00 0.00 0.00
MSLP
1016.01 1015.87 1015.93 1016.12 1016.26 1016.23 1016.36 1016.44 1016.62 1016.62 1016.49 1016.38 1016.41 1016.49 1016.45 1016.35 1016.33 1016.38 1016.36 1016.24 1016.38 1016.64 1016.96 1017.15 1017.49 1017.86 1018.07 1018.38 1018.50 1018.62 1018.69 1018.90 1019.21 1019.52 1019.77 1020.00 1020.23 1020.57 1020.83 1021.05 1021.29 1021.57 1021.80
1015.62 1015.75 1015.78 1015.93 1016.08 1016.09 1016.15 1016.27 1016.38 1016.49 1016.47 1016.46 1016.32 1016.09 1016.03 1015.96 1016.03 1016.22 1015.92 1015.95 1015.87 1016.16 1016.54 1016.87 1016.95 1017.36 1017.69 1018.10 1018.33 1018.50 1018.57 1018.68 1019.06 1019.44 1019.84 1020.20 1020.40 1020.61 1021.00 1021.27 1021.43 1021.58 1021.82
1015.40 1015.48 1015.54 1015.71 1015.65 1015.81 1015.89 1016.09 1016.19 1016.28 1016.38 1016.10 1016.22 1016.01 1015.99 1015.88 1015.84 1015.69 1015.64 1015.64 1015.64 1015.95 1016.09 1016.37 1016.69 1017.16 1017.29 1017.54 1017.85 1018.09 1018.34 1018.48 1018.75 1019.16 1019.52 1019.96 1020.36 1020.57 1020.81 1021.19 1021.51 1021.63 1021.81
1015.08 1015.26 1015.64 1015.53 1015.45 1015.61 1015.92 1016.23 1016.23 1016.25 1016.16 1016.24 1016.18 1015.89 1015.91 1015.70 1015.63 1015.54 1015.34 1015.14 1015.37 1015.59 1015.85 1015.91 1016.33 1016.69 1017.15 1017.43 1017.37 1017.55 1017.83 1018.08 1018.47 1018.82 1019.20 1019.58 1019.93 1020.23 1020.56 1020.92 1021.35 1021.49 1021.71
1014.81 1015.04 1015.08 1015.09 1015.16 1015.38 1015.66 1015.76 1015.98 1016.19 1016.22 1016.13 1015.99 1015.70 1015.78 1015.59 1015.32 1014.75 1014.78 1014.80 1015.10 1015.21 1015.51 1015.60 1015.94 1016.36 1016.63 1016.69 1016.81 1017.10 1017.26 1017.55 1017.93 1018.40 1018.70 1019.10 1019.48 1019.76 1020.12 1020.43 1020.83 1021.30 1021.60
1014.55 1014.68 1014.74 1014.76 1015.02 1015.32 1015.47 1015.61 1015.85 1015.85 1015.83 1015.86 1015.68 1015.54 1015.75 1015.58 1015.33 1015.22 1015.16 1014.89 1015.14 1015.21 1015.35 1015.47 1015.52 1015.64 1015.52 1016.03 1016.10 1016.12 1016.46 1016.92 1017.32 1017.98 1018.38 1018.63 1019.00 1019.33 1019.67 1020.04 1020.39 1020.78 1021.23
1014.30 1014.39 1014.59 1014.60 1014.65 1014.99 1015.14 1015.23 1015.26 1015.34 1015.51 1015.51 1015.44 1015.42 1015.86 1015.77 1015.70 1015.51 1015.26 1015.21 1015.14 1015.28 1015.57 1015.65 1015.78 1015.77 1015.47 1015.64 1015.54 1015.29 1015.52 1016.04 1016.58 1017.33 1017.90 1018.11 1018.34 1018.77 1019.11 1019.32 1019.66 1020.17 1020.70
1014.16 1014.21 1014.43 1014.60 1014.79 1014.87 1015.06 1015.06 1015.19 1015.42 1015.48 1015.36 1015.57 1015.87 1016.08 1016.23 1015.85 1015.59 1015.43 1015.45 1015.34 1015.31 1015.50 1015.59 1015.80 1015.71 1015.82 1015.62 1015.36 1014.67 1014.54 1015.11 1015.69 1016.45 1017.00 1017.35 1017.68 1018.10 1018.44 1018.73 1019.14 1019.40 1019.83
1014.25 1014.17 1014.16 1014.40 1014.67 1014.86 1015.01 1015.04 1014.92 1015.12 1015.30 1015.25 1015.29 1015.72 1016.05 1016.30 1016.19 1015.73 1015.49 1015.39 1015.30 1015.29 1015.35 1015.26 1015.30 1015.50 1015.47 1015.18 1014.92 1014.77 1014.21 1014.92 1015.33 1015.74 1016.23 1016.58 1017.06 1017.47 1017.62 1017.91 1018.42 1018.81 1019.20
1014.20 1014.04 1014.20 1014.36 1014.62 1014.87 1015.02 1015.00 1015.01 1015.03 1015.13 1015.34 1015.47 1015.44 1015.54 1015.79 1016.19 1016.24 1015.77 1015.36 1015.21 1015.06 1014.83 1014.95 1014.92 1015.04 1014.93 1014.96 1014.79 1014.75 1014.86 1014.91 1015.00 1015.18 1015.47 1015.92 1016.43 1016.80 1017.00 1017.35 1017.77 1018.13 1018.71
1014.55 1014.45 1014.62 1014.63 1014.91 1015.07 1015.21 1015.24 1015.29 1015.34 1015.25 1015.37 1015.47 1015.67 1015.84 1015.97 1015.99 1016.25 1016.03 1015.63 1015.13 1014.65 1014.22 1014.49 1014.43 1014.44 1014.37 1014.36 1014.53 1014.61 1014.57 1014.51 1014.82 1014.85 1015.07 1015.30 1015.75 1016.13 1016.36 1016.66 1017.03 1017.69 1018.50
1015.04 1014.82 1014.83 1014.99 1015.10 1015.31 1015.46 1015.47 1015.51 1015.49 1015.41 1015.37 1015.55 1015.70 1015.85 1016.06 1016.19 1016.24 1016.22 1015.91 1015.57 1014.78 1014.06 1013.91 1013.94 1013.93 1013.88 1014.09 1014.05 1013.99 1013.96 1013.94 1014.22 1014.46 1014.67 1014.86 1015.24 1015.64 1015.87 1016.10 1016.35 1016.80 1017.51
1015.37 1015.37 1015.40 1015.58 1015.68 1015.65 1015.60 1015.59 1015.80 1015.83 1015.78 1015.83 1015.91 1016.01 1015.95 1016.05 1016.10 1016.18 1016.32 1016.23 1016.03 1015.31 1014.61 1013.79 1013.88 1013.84 1013.72 1013.55 1013.49 1013.52 1013.62 1013.71 1013.84 1013.97 1014.11 1014.43 1014.68 1014.96 1015.17 1015.35 1015.66 1016.03 1016.45
1015.43 1015.63 1015.76 1015.84 1016.05 1016.09 1016.04 1015.98 1016.22 1016.36 1016.26 1016.27 1016.26 1016.30 1016.45 1016.41 1016.37 1016.39 1016.37 1016.44 1016.45 1016.12 1015.46 1014.66 1013.83 1013.62 1013.42 1013.15 1013.00 1013.09 1013.29 1013.27 1013.46 1013.83 1014.15 1014.37 1014.48 1014.49 1014.54 1014.73 1014.97 1015.27 1015.61
1015.52 1015.81 1015.96 1016.29 1016.38 1016.42 1016.34 1016.46 1016.54 1016.62 1016.69 1016.76 1016.65 1016.59 1016.70 1016.68 1016.56 1016.42 1016.32 1016.30 1016.18 1016.51 1016.08 1015.08 1014.51 1013.70 1013.38 1013.28 1013.16 1013.15 1013.12 1013.12 1013.23 1013.38 1013.69 1013.75 1013.92 1014.05 1014.07 1014.05 1014.29 1014.54 1014.90
1015.61 1015.86 1016.23 1016.43 1016.49 1016.56 1016.68 1016.77 1016.86 1016.87 1016.88 1016.93 1016.89 1016.76 1016.81 1016.84 1016.81 1016.52 1016.33 1016.31 1016.25 1016.24 1016.19 1015.50 1014.88 1014.41 1013.83 1013.44 1013.11 1012.99 1013.04 1013.08 1012.94 1012.91 1012.93 1012.99 1013.15 1013.30 1013.55 1013.86 1014.10 1014.23 1014.54
1015.44 1015.83 1016.23 1016.57 1016.68 1016.73 1016.75 1016.73 1016.83 1016.85 1016.96 1016.95 1017.02 1016.99 1016.95 1016.85 1016.93 1016.91 1016.66 1016.33 1016.20 1016.19 1016.22 1015.62 1015.16 1014.46 1014.15 1013.81 1013.25 1013.04 1012.89 1012.84 1012.78 1012.65 1012.58 1012.64 1012.66 1012.88 1013.32 1013.54 1013.77 1014.05 1014.22
1015.02 1015.41 1015.61 1015.80 1016.01 1016.34 1016.49 1016.60 1016.81 1016.84 1016.80 1016.99 1016.98 1017.00 1017.08 1017.00 1017.09 1017.01 1016.87 1016.76 1016.63 1016.26 1016.23 1016.08 1015.57 1014.95 1014.52 1013.87 1013.44 1013.09 1012.80 1012.62 1012.62 1012.32 1012.13 1012.15 1012.38 1012.58 1012.84 1013.10 1013.50 1013.81 1013.96
1014.61 1014.95 1015.32 1015.73 1015.85 1016.05 1016.20 1016.33 1016.43 1016.58 1016.68 1016.75 1016.71 1016.79 1016.92 1016.97 1017.17 1017.20 1017.08 1016.97 1016.75 1016.42 1016.37 1016.23 1015.94 1015.41 1014.85 1014.45 1013.86 1013.53 1013.30 1012.78 1012.43 1012.28 1012.24 1012.10 1012.09 1012.29 1012.60 1013.05 1013.36 1013.57 1013.69
1014.31 1014.74 1015.09 1015.29 1015.57 1015.76 1015.99 1016.31 1016.51 1016.68 1016.87 1016.89 1016.90 1016.79 1016.75 1016.74 1016.82 1016.91 1017.03 1016.93 1016.83 1016.78 1016.60 1016.48 1016.18 1015.91 1015.53 1015.05 1014.80 1014.57 1013.93 1013.61 1013.23 1012.83 1012.70 1012.59 1012.45 1012.53 1012.74 1013.04 1013.31 1013.49 1013.59
1014.12 1014.34 1014.87 1015.42 1015.80 1016.06 1016.12 1016.26 1016.52 1016.62 1016.71 1016.83 1016.97 1017.08 1017.02 1016.77 1016.64 1016.70 1016.87 1016.83 1016.73 1016.67 1016.62 1016.56 1016.52 1016.19 1015.81 1015.61 1015.46 1015.20 1014.86 1014.32 1013.69 1013.68 1013.23 1013.06 1012.83 1012.81 1012.97 1013.21 1013.47 1013.49 1013.58
1014.34 1014.51 1014.60 1014.80 1015.28 1015.63 1015.88 1016.04 1016.34 1016.44 1016.42 1016.81 1016.85 1016.88 1016.88 1017.04 1017.06 1017.15 1017.15 1017.11 1016.86 1016.69 1016.58 1016.61 1016.58 1016.46 1016.16 1015.95 1015.84 1015.68 1015.39 1014.98 1014.61 1014.11 1013.99 1013.62 1013.24 1013.23 1013.23 1013.48 1013.48 1013.65 1013.91
1013.50 1014.35 1014.83 1015.02 1015.17 1015.49 1015.83 1016.05 1016.23 1016.32 1016.77 1016.80 1016.93 1016.86 1016.57 1016.24 1016.33 1016.51 1016.68 1016.99 1017.21 1016.99 1016.70 1016.52 1016.33 1016.12 1015.89 1015.76 1015.89 1015.83 1015.61 1015.61 1015.40 1014.63 1014.46 1014.08 1013.63 1013.67 1013.41 1013.45 1013.81 1014.07 1014.14
1013.75 1014.02 1014.37 1014.96 1015.31 1015.29 1015.78 1016.11 1016.39 1016.42 1016.51 1016.90 1016.79 1016.98 1016.97 1016.80 1016.56 1016.45 1016.38 1016.57 1016.63 1016.77 1016.78 1016.51 1016.21 1015.95 1015.60 1015.59 1015.62 1015.67 1015.65 1015.65 1015.34 1014.88 1014.70 1014.53 1013.93 1013.85 1013.72 1013.64 1013.89 1014.04 1014.08
1014.48 1013.92 1013.94 1014.54 1014.88 1015.26 1015.44 1015.78 1016.14 1016.77 1016.68 1016.90 1016.61 1016.72 1016.57 1016.78 1016.53 1016.48 1016.76 1016.84 1016.92 1016.55 1016.35 1016.32 1016.00 1015.60 1015.42 1015.18 1015.12 1015.57 1015.59 1015.66 1015.51 1015.02 1014.71 1014.62 1014.41 1014.17 1013.99 1013.78 1013.76 1013.93 1014.02
1014.15 1014.01 1013.95 1013.99 1014.50 1014.80 1015.09 1015.24 1015.89 1016.45 1016.98 1016.59 1016.61 1016.54 1016.18 1016.16 1016.42 1016.32 1016.30 1016.50 1016.49 1016.49 1016.13 1015.99 1016.11 1015.64 1015.27 1014.90 1014.55 1014.66 1014.84 1015.41 1015.54 1015.20 1014.57 1014.77 1014.64 1014.55 1014.29 1013.99 1013.87 1013.88 1013.97
Thickness
5762 5764 5764 5764 5764 5764 5764 5763 5762 5761 5763 5765 5766 5765 5765 5765 5764 5765 5765 5765 5763 5759 5754 5753 5751 5746 5743 5740 5739 5738 5738 5736 5732 5730 5727 5725 5724 5721 5718 5717 5715 5714 5712
5767 5767 5767 5767 5766 5766 5766 5766 5766 5765 5767 5765 5767 5768 5767 5768 5766 5766 5770 5769 5768 5763 5758 5756 5755 5752 5748 5743 5740 5739 5739 5738 5735 5730 5726 5723 5722 5720 5718 5715 5716 5715 5714
5770 5770 5770 5771 5770 5769 5769 5768 5768 5768 5768 5769 5768 5769 5767 5767 5769 5771 5772 5772 5770 5765 5762 5760 5757 5752 5749 5747 5744 5741 5740 5738 5737 5733 5728 5724 5722 5721 5719 5716 5714 5715 5716
5772 5772 5772 5772 5773 5772 5770 5768 5769 5768 5768 5767 5767 5769 5769 5770 5770 5772 5773 5775 5772 5767 5765 5762 5759 5754 5750 5747 5747 5744 5743 5740 5737 5735 5731 5727 5725 5724 5722 5718 5714 5715 5715
5776 5774 5774 5774 5774 5773 5771 5771 5770 5768 5766 5767 5767 5770 5771 5772 5773 5775 5776 5776 5772 5770 5766 5765 5761 5756 5753 5753 5751 5748 5747 5745 5740 5737 5735 5731 5728 5727 5725 5723 5719 5714 5713
5777 5777 5777 5777 5775 5774 5773 5772 5769 5769 5770 5769 5770 5771 5769 5769 5771 5772 5772 5773 5770 5767 5767 5764 5762 5760 5761 5756 5755 5755 5754 5748 5744 5739 5735 5734 5731 5728 5727 5724 5722 5718 5714
5779 5780 5780 5780 5779 5777 5776 5777 5776 5774 5773 5774 5771 5769 5766 5766 5766 5767 5770 5770 5768 5766 5762 5758 5757 5755 5757 5755 5754 5758 5757 5753 5749 5743 5737 5737 5735 5732 5729 5728 5727 5723 5718
5781 5779 5778 5779 5778 5776 5776 5777 5776 5772 5772 5773 5766 5762 5756 5758 5763 5765 5765 5764 5764 5761 5759 5756 5753 5755 5754 5752 5751 5757 5762 5759 5755 5748 5744 5740 5737 5734 5732 5730 5729 5729 5726
5778 5779 5779 5780 5778 5776 5774 5776 5776 5773 5768 5770 5770 5761 5750 5746 5752 5760 5761 5761 5760 5759 5759 5758 5756 5754 5755 5755 5754 5754 5763 5760 5753 5751 5748 5746 5741 5737 5737 5734 5733 5732 5730
5778 5778 5777 5776 5777 5776 5774 5774 5774 5772 5769 5763 5765 5766 5763 5757 5746 5744 5753 5755 5757 5759 5761 5759 5757 5756 5757 5756 5756 5755 5758 5757 5756 5756 5752 5749 5746 5742 5741 5737 5734 5732 5728
5774 5774 5773 5773 5772 5771 5771 5770 5768 5766 5765 5762 5760 5758 5757 5754 5752 5743 5739 5746 5755 5760 5763 5762 5760 5758 5759 5758 5757 5757 5759 5759 5757 5757 5757 5754 5749 5747 5746 5744 5739 5733 5726
5767 5767 5768 5767 5767 5766 5765 5764 5763 5761 5760 5759 5758 5757 5754 5751 5747 5744 5742 5744 5745 5755 5762 5766 5765 5763 5762 5761 5761 5762 5762 5764 5763 5762 5760 5756 5752 5747 5746 5745 5743 5739 5733
5761 5761 5761 5760 5760 5760 5760 5761 5759 5757 5757 5754 5753 5753 5754 5752 5750 5747 5744 5744 5745 5752 5756 5765 5766 5766 5766 5767 5767 5767 5765 5765 5764 5763 5762 5759 5757 5753 5751 5748 5746 5743 5740
5759 5758 5756 5755 5753 5753 5754 5755 5753 5751 5752 5751 5751 5750 5748 5748 5748 5747 5744 5741 5739 5743 5751 5756 5764 5765 5767 5769 5770 5768 5766 5766 5764 5761 5758 5756 5755 5754 5753 5752 5749 5748 5744
5757 5754 5752 5749 5748 5748 5749 5749 5747 5746 5746 5744 5745 5746 5745 5745 5745 5746 5745 5743 5741 5736 5739 5751 5753 5763 5764 5765 5766 5765 5764 5764 5762 5760 5757 5757 5755 5753 5752 5753 5752 5750 5748
5752 5750 5746 5745 5744 5744 5743 5742 5740 5741 5740 5740 5739 5741 5740 5740 5740 5742 5742 5741 5739 5737 5734 5745 5750 5753 5756 5759 5762 5763 5762 5760 5760 5759 5758 5756 5755 5754 5752 5749 5748 5748 5745
5753 5749 5745 5741 5740 5740 5739 5739 5738 5737 5735 5735 5735 5734 5734 5735 5735 5735 5736 5737 5736 5734 5731 5738 5745 5750 5750 5751 5755 5756 5757 5756 5756 5756 5755 5754 5754 5751 5749 5748 5744 5742 5742
5758 5753 5751 5749 5747 5743 5741 5739 5735 5735 5735 5732 5732 5731 5728 5728 5727 5728 5729 5729 5728 5729 5727 5725 5732 5738 5741 5745 5747 5748 5750 5750 5750 5752 5754 5753 5749 5748 5745 5744 5739 5737 5738
5759 5756 5751 5747 5746 5744 5741 5740 5738 5736 5733 5731 5731 5729 5725 5724 5721 5719 5720 5720 5721 5723 5720 5718 5720 5726 5729 5732 5735 5737 5738 5741 5743 5743 5744 5746 5745 5742 5738 5735 5733 5734 5733
5757 5752 5748 5745 5743 5742 5739 5735 5733 5730 5727 5726 5725 5724 5722 5720 5718 5717 5714 5713 5712 5711 5712 5710 5710 5710 5712 5715 5717 5717 5721 5723 5725 5729 5730 5731 5732 5730 5728 5727 5725 5725 5725
5755 5753 5745 5737 5734 5731 5731 5730 5726 5724 5721 5719 5717 5714 5712 5712 5713 5711 5708 5706 5706 5703 5702 5701 5699 5699 5700 5699 5699 5701 5701 5706 5712 5712 5716 5718 5720 5719 5719 5715 5713 5714 5715
5746 5744 5742 5739 5732 5728 5726 5725 5721 5719 5719 5712 5711 5709 5706 5702 5699 5697 5695 5695 5696 5694 5693 5691 5689 5688 5688 5688 5687 5687 5687 5689 5692 5698 5699 5701 5705 5708 5706 5704 5704 5703 5702
5750 5740 5734 5733 5730 5726 5722 5719 5716 5713 5707 5706 5701 5700 5703 5705 5701 5697 5693 5686 5679 5680 5682 5681 5680 5680 5680 5680 5677 5675 5677 5676 5677 5685 5686 5687 5693 5692 5695 5695 5692 5691 5692
5740 5737 5732 5725 5720 5720 5714 5710 5707 5705 5703 5698 5696 5691 5689 5690 5690 5689 5687 5683 5680 5675 5671 5672 5673 5672 5673 5672 5670 5669 5669 5668 5669 5673 5675 5675 5681 5682 5683 5684 5683 5683 5683
5723 5727 5728 5721 5717 5711 5709 5704 5700 5692 5693 5690 5691 5686 5686 5681 5681 5681 5676 5673 5668 5667 5667 5664 5665 5667 5666 5666 5665 5661 5660 5659 5659 5663 5666 5666 5669 5671 5672 5674 5675 5675 5675
5715 5718 5718 5718 5712 5708 5703 5699 5692 5686 5681 5685 5682 5679 5680 5679 5675 5675 5673 5670 5667 5663 5663 5661 5657 5658 5659 5662 5662 5661 5658 5651 5650 5653 5660 5657 5658 5659 5660 5665 5666 5666 5668